{"data":{"norad_id":67020,"epoch":"2026-09-20T20:49:45.395328Z","epoch_age_seconds":49913,"freshness":"FRESH","line1":"1 67020U 25293T   26263.86788652  .00001199  00000+0  10828-3 0  9996","line2":"2 67020  70.0006 322.3411 0004014 269.5672  90.5027 14.98334589 44119","mean_motion":14.98334589,"eccentricity":0.0004014,"inclination_deg":70.0006,"raan_deg":322.3411,"arg_perigee_deg":269.5672,"mean_anomaly_deg":90.5027,"bstar":0.00010828,"rev_number":4411,"period_min":96.106704775538,"perigee_km":569.25189814655,"apogee_km":574.83150160681,"semimajor_km":6950.1786998767,"source":"CELESTRAK","updated_at":"2026-09-21T09:00:36.071842Z"}}